• MPC Preparation (Info)

  • MPEC 2019-G05 : 2019 FN2

    The following Minor Planet Electronic Circular may be linked-to from your own Web pages, but must not otherwise be redistributed electronically.

    A form allowing access to any MPEC is at the bottom of this page.


    Read MPEC 2019-G04 Read MPEC 2019-G06


    M.P.E.C. 2019-G05                                Issued 2019 Apr. 1, 20:13 UT
    
         The Minor Planet Electronic Circulars contain information on unusual
             minor planets and routine data on comets.  They are published
        on behalf of Division F of the International Astronomical Union by the
              Minor Planet Center, Smithsonian Astrophysical Observatory,
                              Cambridge, MA 02138, U.S.A.
    
                 Prepared using the Tamkin Foundation Computer Network
    
                                  MPC@CFA.HARVARD.EDU
                URL https://www.minorplanetcenter.net/    ISSN 1523-6714
    
                                       2019 FN2
    
    Observations:
         K19F02N* C2019 03 30.37754 17 55 31.37 +37 32 11.1          20.4 GVEG005G96
         K19F02N  C2019 03 30.38380 17 55 31.25 +37 32 21.8          20.7 GVEG005G96
         K19F02N  C2019 03 30.39006 17 55 31.12 +37 32 31.2          20.5 GVEG005G96
         K19F02N  C2019 03 30.39632 17 55 31.09 +37 32 41.2          20.5 GVEG005G96
         K19F02N  C2019 03 30.42738 17 55 30.33 +37 33 31.4          20.7 GVEG005G96
         K19F02N  C2019 03 30.43047 17 55 30.30 +37 33 35.8          21.2 GVEG005G96
         K19F02N  C2019 03 30.43364 17 55 30.24 +37 33 40.6          21.1 GVEG005G96
         K19F02N  C2019 03 30.43686 17 55 30.08 +37 33 46.2          21.3 GVEG005G96
         K19F02N  C2019 03 30.45346 17 55 29.63 +37 34 11.1          20.4 GVEG005I52
         K19F02N  C2019 03 30.45576 17 55 29.56 +37 34 15.1          20.6 GVEG005I52
         K19F02N  C2019 03 30.45805 17 55 29.46 +37 34 17.6                VEG005I52
         K19F02N  C2019 03 30.46222 17 55 29.33 +37 34 24.6                VEG005I52
         K19F02N KC2019 03 30.96434517 55 37.63 +37 45 13.5          21.6 GVEG005L01
         K19F02N IC2019 03 31.01890817 55 37.43 +37 46 47.0          21.8 GVEG005L01
         K19F02N KC2019 03 31.02571817 55 37.38 +37 46 57.9          21.5 GVEG005L01
         K19F02N KC2019 03 31.38848 17 55 39.91 +37 56 15.5          20.4 GUEG005734
         K19F02N KC2019 03 31.40404 17 55 39.46 +37 56 41.8          20.0 GUEG005734
         K19F02N KC2019 03 31.41962 17 55 38.98 +37 57 07.6          20.1 GUEG005734
         K19F02N  C2019 03 31.43001 17 55 40.65 +37 57 29.1          20.4 GVEG005I52
         K19F02N  C2019 03 31.43168 17 55 40.57 +37 57 32.3                VEG005I52
         K19F02N  C2019 03 31.43602 17 55 40.43 +37 57 39.5                VEG005I52
         K19F02N  C2019 04 01.10066 17 55 45.37 +38 14 25.2          20.4 VVEG005033
         K19F02N  C2019 04 01.10422 17 55 45.27 +38 14 31.4          20.5 VVEG005033
         K19F02N  C2019 04 01.10780 17 55 45.19 +38 14 37.6          20.3 VVEG005033
         K19F02N  C2019 04 01.11137 17 55 45.10 +38 14 43.8          20.5 VVEG005033
         K19F02N  C2019 04 01.12546 17 55 44.76 +38 15 08.4          20.4 VVEG005033
         K19F02N  C2019 04 01.12904 17 55 44.66 +38 15 14.4          20.4 VVEG005033
         K19F02N  C2019 04 01.13260 17 55 44.57 +38 15 20.5          20.4 VVEG005033
         K19F02N  C2019 04 01.13618 17 55 44.46 +38 15 26.6          20.7 VVEG005033
         K19F02N KC2019 04 01.39239 17 55 50.27 +38 22 54.7                oEG005711
         K19F02N IC2019 04 01.39956 17 55 50.13 +38 23 08.7                oEG005711
         K19F02N KC2019 04 01.40304 17 55 50.01 +38 23 15.2                oEG005711
         K19F02N KC2019 04 01.40660 17 55 49.87 +38 23 22.9                oEG005711
    
    Observer details:
    033 Karl Schwarzschild Observatory, Tautenburg.  Observers U. Laux,
        B. Stecklum.  Measurer B. Stecklum.  1.34-m f/3 Schmidt + CCD.
    711 McDonald Observatory, Fort Davis.  Observer J. G. Ries.  2.1-m reflector
        + CCD + focal reducer.
    734 Farpoint Observatory, Eskridge.  Observer G. Hug.  0.69-m reflector + CCD.
    G96 Mt. Lemmon Survey.  Observer B. M. Africano.  Measurers B. M. Africano,
        E. J. Christensen, G. A. Farneth, D. C. Fuls, A. R. Gibbs, A. D. Grauer,
        H. Groeller, R. A. Kowalski, S. M. Larson, G. J. Leonard, T. A. Pruyne,
        R. L. Seaman, F. C. Shelly.  1.5-m reflector + 10K CCD.
    I52 Steward Observatory, Mt. Lemmon Station.  Observer H. Groeller.
        Measurers B. M. Africano, E. J. Christensen, G. A. Farneth, D. C. Fuls,
        A. R. Gibbs, A. D. Grauer, H. Groeller, R. A. Kowalski, S. M. Larson,
        G. J. Leonard, T. A. Pruyne, R. L. Seaman, F. C. Shelly.  1.0-m reflector
        + CCD.
    L01 Visnjan Observatory, Tican.  Observers K. Korlevic, F. Matkovic,
        G. Kervina, F. Valentine.  Measurer K. Korlevic.  1.0-m f/2.9 reflector +
        CCD.
    
    Orbital elements:
    2019 FN2                                                 Earth MOID = 0.0054 AU
    Epoch 2019 Apr. 27.0 TT = JDT 2458600.5                 MPC
    M 213.66177              (2000.0)            P               Q
    n   1.29914691     Peri.  343.23451     +0.97272323     -0.20106378
    a   0.8318223      Node    29.14639     +0.23058564     +0.78372202
    e   0.2143211      Incl.   13.74045     +0.02529384     +0.58766755
    P   0.76           H   23.5           G   0.15           U   8
    Residuals in seconds of arc
    190330 G96  0.2+  0.1+    190330 I52  0.5-  0.2-    190401 033  0.1-  0.0
    190330 G96  0.1-  0.6+    190330 L01  0.4+  0.5+    190401 033  0.1-  0.1-
    190330 G96  0.4-  0.2-    190331 L01  0.1-  0.7+    190401 033  0.1-  0.2-
    190330 G96  0.6+  0.3-    190331 L01  0.1+  0.0     190401 033  0.1+  0.1-
    190330 G96  0.3-  0.4+    190331 734  0.4+  0.0     190401 033  0.0   0.3-
    190330 G96  0.3+  0.1-    190331 734  0.1+  0.1+    190401 033  0.1+  0.3-
    190330 G96  0.6+  0.2-    190331 734  0.1-  0.0     190401 033  0.1-  0.3-
    190330 G96  0.3-  0.4+    190331 I52  0.3+  0.2-    190401 711  0.7-  0.1-
    190330 I52  0.1-  0.4-    190331 I52  0.1-  0.1+    190401 711  0.3+  0.1+
    190330 I52  0.1-  0.1+    190331 I52  0.2-  0.1-    190401 711  0.2+  0.0
    190330 I52  0.5-  0.9-    190401 033  0.1+  0.0     190401 711  0.1-  0.9+
    
    Ephemeris:
    2019 FN2                 a,e,i = 0.83, 0.21, 14                  q = 0.6535
    Date    TT    R. A. (2000) Decl.     Delta      r     Elong.  Phase     V
    2019 03 02    17 49 12.2 +32 53 51   0.1906  0.9817    81.7    87.2    22.9
    ...
    2019 03 17    17 52 20.7 +34 28 12   0.1391  1.0030    89.4    82.7    22.1
    ...
    2019 03 25    17 54 16.6 +35 56 02   0.1077  1.0086    93.1    80.8    21.5
    ...
    2019 03 31    17 55 31.8 +37 46 55   0.08284 1.0102    95.5    79.8    20.9
    2019 04 01    17 55 41.3 +38 12 13   0.07862 1.0102    95.9    79.7    20.8
    2019 04 02    17 55 49.5 +38 40 22   0.07439 1.0102    96.2    79.6    20.7
    ...
    2019 04 08    17 55 54.7 +43 09 46   0.04878 1.0087    97.6    79.6    19.7
    ...
    2019 04 16    17 41 34.6 +71 13 08   0.01614 1.0033    89.3    89.8    17.7
    ...
    2019 05 01    05 57 10.4 -20 32 04   0.05527 0.9825    61.8   115.3    21.7
    
    A. U. Tomatic                (C) Copyright 2019 MPC           M.P.E.C. 2019-G05
    

    Read MPEC 2019-G04 Read MPEC 2019-G06


    MPEC number:

    Enter an MPEC number in one of the following forms:

    • 1997-B01 (the full form)
    • J97B01 (the packed version of the full form)
    • B01 (the abbreviated form)